User: anonymous   Login
Location: Unspecified
(0.0000°N, 0.0000°E)
Time: 15:29:59
(UTC+00:00)
Language:

Kosmos-2100 - Orbit

View from above orbital plane
View from above orbital plane
View from above satellite
View from above satellite

Ground track
Ground track

The orbit data is extracted from the following two-line orbital elements,

1 20804U 90083A   17229.10487520  .00000035  00000-0  21323-4 0  9995
2 20804  82.9385  36.2483 0035485 267.9687 229.6553 13.74304276350352
Epoch (UTC): 17 August 2017 02:31:01
Eccentricity: 0.0035485
inclination: 82.9385°
perigee height: 958 km
apogee height: 1010 km
right ascension of ascending node: 36.2483°
argument of perigee: 267.9687°
revolutions per day: 13.74304276
mean anomaly at epoch: 229.6553°
orbit number at epoch: 35035

The dashed part of the orbit path shows where the satellite is in the earth's shadow,  

DLR